Year,Month,Day,Hour,Minute,Value (Times are PST for insolation in W/m^2)
2016,09,07,00,00,0.00
2016,09,07,00,01,0.00
2016,09,07,00,02,0.00
2016,09,07,00,03,0.00
2016,09,07,00,04,0.00
2016,09,07,00,05,0.00
2016,09,07,00,06,0.00
2016,09,07,00,07,0.00
2016,09,07,00,08,0.00
2016,09,07,00,09,0.00
2016,09,07,00,10,0.00
2016,09,07,00,11,0.00
2016,09,07,00,12,0.00
2016,09,07,00,13,0.00
2016,09,07,00,14,0.00
2016,09,07,00,15,0.00
2016,09,07,00,16,0.00
2016,09,07,00,17,0.00
2016,09,07,00,18,0.00
2016,09,07,00,19,0.00
2016,09,07,00,20,0.00
2016,09,07,00,21,0.00
2016,09,07,00,22,0.00
2016,09,07,00,23,0.00
2016,09,07,00,24,0.00
2016,09,07,00,25,0.00
2016,09,07,00,26,0.00
2016,09,07,00,27,0.00
2016,09,07,00,28,0.00
2016,09,07,00,29,0.00
2016,09,07,00,30,0.00
2016,09,07,00,31,0.00
2016,09,07,00,32,0.00
2016,09,07,00,33,0.00
2016,09,07,00,34,0.00
2016,09,07,00,35,0.00
2016,09,07,00,36,0.00
2016,09,07,00,37,0.00
2016,09,07,00,38,0.00
2016,09,07,00,39,0.00
2016,09,07,00,40,0.00
2016,09,07,00,41,0.00
2016,09,07,00,42,0.00
2016,09,07,00,43,0.00
2016,09,07,00,44,0.00
2016,09,07,00,45,0.00
2016,09,07,00,46,0.00
2016,09,07,00,47,0.00
2016,09,07,00,48,0.00
2016,09,07,00,49,0.00
2016,09,07,00,50,0.00
2016,09,07,00,51,0.00
2016,09,07,00,52,0.00
2016,09,07,00,53,0.00
2016,09,07,00,54,0.00
2016,09,07,00,55,0.00
2016,09,07,00,56,0.00
2016,09,07,00,57,0.00
2016,09,07,00,58,0.00
2016,09,07,00,59,0.00
2016,09,07,01,00,0.00
2016,09,07,01,01,0.00
2016,09,07,01,02,0.00
2016,09,07,01,03,0.00
2016,09,07,01,04,0.00
2016,09,07,01,05,0.00
2016,09,07,01,06,0.00
2016,09,07,01,07,0.00
2016,09,07,01,08,0.00
2016,09,07,01,09,0.00
2016,09,07,01,10,0.00
2016,09,07,01,11,0.00
2016,09,07,01,12,0.00
2016,09,07,01,13,0.00
2016,09,07,01,14,0.00
2016,09,07,01,15,0.00
2016,09,07,01,16,0.00
2016,09,07,01,17,0.00
2016,09,07,01,18,0.00
2016,09,07,01,19,0.00
2016,09,07,01,20,0.00
2016,09,07,01,21,0.00
2016,09,07,01,22,0.00
2016,09,07,01,23,0.00
2016,09,07,01,24,0.00
2016,09,07,01,25,0.00
2016,09,07,01,26,0.00
2016,09,07,01,27,0.00
2016,09,07,01,28,0.00
2016,09,07,01,29,0.00
2016,09,07,01,30,0.00
2016,09,07,01,31,0.00
2016,09,07,01,32,0.00
2016,09,07,01,33,0.00
2016,09,07,01,34,0.00
2016,09,07,01,35,0.00
2016,09,07,01,36,0.00
2016,09,07,01,37,0.00
2016,09,07,01,38,0.00
2016,09,07,01,39,0.00
2016,09,07,01,40,0.00
2016,09,07,01,41,0.00
2016,09,07,01,42,0.00
2016,09,07,01,43,0.00
2016,09,07,01,44,0.00
2016,09,07,01,45,0.00
2016,09,07,01,46,0.00
2016,09,07,01,47,0.00
2016,09,07,01,48,0.00
2016,09,07,01,49,0.00
2016,09,07,01,50,0.00
2016,09,07,01,51,0.00
2016,09,07,01,52,0.00
2016,09,07,01,53,0.00
2016,09,07,01,54,0.00
2016,09,07,01,55,0.00
2016,09,07,01,56,0.00
2016,09,07,01,57,0.00
2016,09,07,01,58,0.00
2016,09,07,01,59,0.00
2016,09,07,02,00,0.00
2016,09,07,02,01,0.00
2016,09,07,02,02,0.00
2016,09,07,02,03,0.00
2016,09,07,02,04,0.00
2016,09,07,02,05,0.00
2016,09,07,02,06,0.00
2016,09,07,02,07,0.00
2016,09,07,02,08,0.00
2016,09,07,02,09,0.00
2016,09,07,02,10,0.00
2016,09,07,02,11,0.00
2016,09,07,02,12,0.00
2016,09,07,02,13,0.00
2016,09,07,02,14,0.00
2016,09,07,02,15,0.00
2016,09,07,02,16,0.00
2016,09,07,02,17,0.00
2016,09,07,02,18,0.00
2016,09,07,02,19,0.00
2016,09,07,02,20,0.00
2016,09,07,02,21,0.00
2016,09,07,02,22,0.00
2016,09,07,02,23,0.00
2016,09,07,02,24,0.00
2016,09,07,02,25,0.00
2016,09,07,02,26,0.00
2016,09,07,02,27,0.00
2016,09,07,02,28,0.00
2016,09,07,02,29,0.00
2016,09,07,02,30,0.00
2016,09,07,02,31,0.00
2016,09,07,02,32,0.00
2016,09,07,02,33,0.00
2016,09,07,02,34,0.00
2016,09,07,02,35,0.00
2016,09,07,02,36,0.00
2016,09,07,02,37,0.00
2016,09,07,02,38,0.00
2016,09,07,02,39,0.00
2016,09,07,02,40,0.00
2016,09,07,02,41,0.00
2016,09,07,02,42,0.00
2016,09,07,02,43,0.00
2016,09,07,02,44,0.00
2016,09,07,02,45,0.00
2016,09,07,02,46,0.00
2016,09,07,02,47,0.00
2016,09,07,02,48,0.00
2016,09,07,02,49,0.00
2016,09,07,02,50,0.00
2016,09,07,02,51,0.00
2016,09,07,02,52,0.00
2016,09,07,02,53,0.00
2016,09,07,02,54,0.00
2016,09,07,02,55,0.00
2016,09,07,02,56,0.00
2016,09,07,02,57,0.00
2016,09,07,02,58,0.00
2016,09,07,02,59,0.00
2016,09,07,03,00,0.00
2016,09,07,03,01,0.00
2016,09,07,03,02,0.00
2016,09,07,03,03,0.00
2016,09,07,03,04,0.00
2016,09,07,03,05,0.00
2016,09,07,03,06,0.00
2016,09,07,03,07,0.00
2016,09,07,03,08,0.00
2016,09,07,03,09,0.00
2016,09,07,03,10,0.00
2016,09,07,03,11,0.00
2016,09,07,03,12,0.00
2016,09,07,03,13,0.00
2016,09,07,03,14,0.00
2016,09,07,03,15,0.00
2016,09,07,03,16,0.00
2016,09,07,03,17,0.00
2016,09,07,03,18,0.00
2016,09,07,03,19,0.00
2016,09,07,03,20,0.00
2016,09,07,03,21,0.00
2016,09,07,03,22,0.00
2016,09,07,03,23,0.00
2016,09,07,03,24,0.00
2016,09,07,03,25,0.00
2016,09,07,03,26,0.00
2016,09,07,03,27,0.00
2016,09,07,03,28,0.00
2016,09,07,03,29,0.00
2016,09,07,03,30,0.00
2016,09,07,03,31,0.00
2016,09,07,03,32,0.00
2016,09,07,03,33,0.00
2016,09,07,03,34,0.00
2016,09,07,03,35,0.00
2016,09,07,03,36,0.00
2016,09,07,03,37,0.00
2016,09,07,03,38,0.00
2016,09,07,03,39,0.00
2016,09,07,03,40,0.00
2016,09,07,03,41,0.00
2016,09,07,03,42,0.00
2016,09,07,03,43,0.00
2016,09,07,03,44,0.00
2016,09,07,03,45,0.00
2016,09,07,03,46,0.00
2016,09,07,03,47,0.00
2016,09,07,03,48,0.00
2016,09,07,03,49,0.00
2016,09,07,03,50,0.00
2016,09,07,03,51,0.00
2016,09,07,03,52,0.00
2016,09,07,03,53,0.00
2016,09,07,03,54,0.00
2016,09,07,03,55,0.00
2016,09,07,03,56,0.00
2016,09,07,03,57,0.00
2016,09,07,03,58,0.00
2016,09,07,03,59,0.00
2016,09,07,04,00,0.00
2016,09,07,04,01,0.00
2016,09,07,04,02,0.00
2016,09,07,04,03,0.00
2016,09,07,04,04,0.00
2016,09,07,04,05,0.00
2016,09,07,04,06,0.00
2016,09,07,04,07,0.00
2016,09,07,04,08,0.00
2016,09,07,04,09,0.00
2016,09,07,04,10,0.00
2016,09,07,04,11,0.00
2016,09,07,04,12,0.00
2016,09,07,04,13,0.00
2016,09,07,04,14,0.00
2016,09,07,04,15,0.00
2016,09,07,04,16,0.00
2016,09,07,04,17,0.00
2016,09,07,04,18,0.00
2016,09,07,04,19,0.00
2016,09,07,04,20,0.00
2016,09,07,04,21,0.00
2016,09,07,04,22,0.00
2016,09,07,04,23,0.00
2016,09,07,04,24,0.00
2016,09,07,04,25,0.00
2016,09,07,04,26,0.00
2016,09,07,04,27,0.00
2016,09,07,04,28,0.00
2016,09,07,04,29,0.00
2016,09,07,04,30,0.00
2016,09,07,04,31,0.00
2016,09,07,04,32,0.00
2016,09,07,04,33,0.00
2016,09,07,04,34,0.00
2016,09,07,04,35,0.00
2016,09,07,04,36,0.00
2016,09,07,04,37,0.00
2016,09,07,04,38,0.00
2016,09,07,04,39,0.00
2016,09,07,04,40,0.00
2016,09,07,04,41,0.00
2016,09,07,04,42,0.00
2016,09,07,04,43,0.00
2016,09,07,04,44,0.00
2016,09,07,04,45,0.00
2016,09,07,04,46,0.00
2016,09,07,04,47,0.00
2016,09,07,04,48,0.00
2016,09,07,04,49,0.00
2016,09,07,04,50,0.00
2016,09,07,04,51,0.00
2016,09,07,04,52,0.00
2016,09,07,04,53,0.00
2016,09,07,04,54,0.00
2016,09,07,04,55,0.00
2016,09,07,04,56,0.00
2016,09,07,04,57,0.00
2016,09,07,04,58,0.00
2016,09,07,04,59,0.00
2016,09,07,05,00,0.00
2016,09,07,05,01,0.00
2016,09,07,05,02,0.00
2016,09,07,05,03,0.00
2016,09,07,05,04,0.00
2016,09,07,05,05,0.00
2016,09,07,05,06,0.00
2016,09,07,05,07,0.00
2016,09,07,05,08,0.00
2016,09,07,05,09,0.00
2016,09,07,05,10,0.00
2016,09,07,05,11,0.00
2016,09,07,05,12,0.00
2016,09,07,05,13,0.00
2016,09,07,05,14,0.00
2016,09,07,05,15,0.00
2016,09,07,05,16,0.00
2016,09,07,05,17,0.00
2016,09,07,05,18,0.00
2016,09,07,05,19,0.00
2016,09,07,05,20,0.00
2016,09,07,05,21,0.00
2016,09,07,05,22,0.00
2016,09,07,05,23,0.00
2016,09,07,05,24,0.00
2016,09,07,05,25,0.00
2016,09,07,05,26,0.00
2016,09,07,05,27,0.00
2016,09,07,05,28,0.00
2016,09,07,05,29,0.00
2016,09,07,05,30,0.00
2016,09,07,05,31,0.00
2016,09,07,05,32,0.00
2016,09,07,05,33,0.00
2016,09,07,05,34,0.00
2016,09,07,05,35,0.00
2016,09,07,05,36,0.00
2016,09,07,05,37,0.00
2016,09,07,05,38,0.00
2016,09,07,05,39,0.00
2016,09,07,05,40,0.00
2016,09,07,05,41,0.00
2016,09,07,05,42,0.00
2016,09,07,05,43,0.00
2016,09,07,05,44,0.00
2016,09,07,05,45,0.00
2016,09,07,05,46,0.00
2016,09,07,05,47,0.00
2016,09,07,05,48,0.00
2016,09,07,05,49,0.00
2016,09,07,05,50,0.00
2016,09,07,05,51,0.00
2016,09,07,05,52,0.00
2016,09,07,05,53,0.00
2016,09,07,05,54,0.00
2016,09,07,05,55,0.00
2016,09,07,05,56,0.00
2016,09,07,05,57,0.00
2016,09,07,05,58,0.00
2016,09,07,05,59,0.00
2016,09,07,06,00,0.00
2016,09,07,06,01,0.00
2016,09,07,06,02,0.00
2016,09,07,06,03,0.00
2016,09,07,06,04,0.00
2016,09,07,06,05,0.00
2016,09,07,06,06,0.00
2016,09,07,06,07,0.00
2016,09,07,06,08,0.00
2016,09,07,06,09,0.00
2016,09,07,06,10,0.00
2016,09,07,06,11,0.00
2016,09,07,06,12,0.00
2016,09,07,06,13,0.00
2016,09,07,06,14,0.00
2016,09,07,06,15,0.00
2016,09,07,06,16,0.00
2016,09,07,06,17,0.00
2016,09,07,06,18,0.00
2016,09,07,06,19,0.00
2016,09,07,06,20,0.00
2016,09,07,06,21,0.00
2016,09,07,06,22,0.00
2016,09,07,06,23,0.00
2016,09,07,06,24,0.00
2016,09,07,06,25,0.00
2016,09,07,06,26,0.00
2016,09,07,06,27,0.00
2016,09,07,06,28,0.00
2016,09,07,06,29,0.00
2016,09,07,06,30,0.00
2016,09,07,06,31,0.00
2016,09,07,06,32,0.00
2016,09,07,06,33,0.00
2016,09,07,06,34,0.00
2016,09,07,06,35,0.00
2016,09,07,06,36,0.00
2016,09,07,06,37,0.00
2016,09,07,06,38,0.00
2016,09,07,06,39,0.00
2016,09,07,06,40,0.00
2016,09,07,06,41,0.00
2016,09,07,06,42,0.00
2016,09,07,06,43,0.00
2016,09,07,06,44,0.00
2016,09,07,06,45,0.00
2016,09,07,06,46,0.00
2016,09,07,06,47,0.00
2016,09,07,06,48,0.00
2016,09,07,06,49,0.00
2016,09,07,06,50,0.00
2016,09,07,06,51,0.00
2016,09,07,06,52,0.00
2016,09,07,06,53,0.00
2016,09,07,06,54,0.00
2016,09,07,06,55,0.00
2016,09,07,06,56,0.00
2016,09,07,06,57,0.00
2016,09,07,06,58,3.50
2016,09,07,06,59,5.00
2016,09,07,07,00,5.00
2016,09,07,07,01,5.00
2016,09,07,07,02,5.00
2016,09,07,07,03,5.00
2016,09,07,07,04,5.00
2016,09,07,07,05,6.10
2016,09,07,07,06,7.00
2016,09,07,07,07,7.00
2016,09,07,07,08,8.70
2016,09,07,07,09,9.00
2016,09,07,07,10,9.30
2016,09,07,07,11,11.00
2016,09,07,07,12,11.40
2016,09,07,07,13,12.00
2016,09,07,07,14,12.00
2016,09,07,07,15,13.40
2016,09,07,07,16,15.60
2016,09,07,07,17,17.80
2016,09,07,07,18,19.00
2016,09,07,07,19,19.40
2016,09,07,07,20,21.70
2016,09,07,07,21,23.80
2016,09,07,07,22,25.00
2016,09,07,07,23,25.60
2016,09,07,07,24,26.00
2016,09,07,07,25,26.00
2016,09,07,07,26,27.90
2016,09,07,07,27,28.30
2016,09,07,07,28,30.40
2016,09,07,07,29,32.00
2016,09,07,07,30,32.40
2016,09,07,07,31,33.00
2016,09,07,07,32,34.30
2016,09,07,07,33,35.00
2016,09,07,07,34,36.70
2016,09,07,07,35,39.00
2016,09,07,07,36,40.40
2016,09,07,07,37,42.60
2016,09,07,07,38,44.70
2016,09,07,07,39,46.50
2016,09,07,07,40,48.20
2016,09,07,07,41,50.40
2016,09,07,07,42,52.60
2016,09,07,07,43,53.90
2016,09,07,07,44,56.00
2016,09,07,07,45,56.00
2016,09,07,07,46,56.00
2016,09,07,07,47,55.10
2016,09,07,07,48,54.00
2016,09,07,07,49,54.00
2016,09,07,07,50,54.00
2016,09,07,07,51,55.70
2016,09,07,07,52,56.10
2016,09,07,07,53,58.00
2016,09,07,07,54,58.60
2016,09,07,07,55,60.00
2016,09,07,07,56,61.00
2016,09,07,07,57,62.00
2016,09,07,07,58,62.00
2016,09,07,07,59,60.40
2016,09,07,08,00,60.00
2016,09,07,08,01,57.80
2016,09,07,08,02,56.00
2016,09,07,08,03,55.40
2016,09,07,08,04,54.00
2016,09,07,08,05,54.00
2016,09,07,08,06,54.00
2016,09,07,08,07,55.50
2016,09,07,08,08,56.00
2016,09,07,08,09,56.00
2016,09,07,08,10,56.00
2016,09,07,08,11,56.40
2016,09,07,08,12,58.00
2016,09,07,08,13,58.90
2016,09,07,08,14,60.00
2016,09,07,08,15,61.30
2016,09,07,08,16,62.00
2016,09,07,08,17,62.00
2016,09,07,08,18,63.00
2016,09,07,08,19,63.00
2016,09,07,08,20,62.70
2016,09,07,08,21,61.30
2016,09,07,08,22,59.00
2016,09,07,08,23,56.80
2016,09,07,08,24,54.60
2016,09,07,08,25,53.20
2016,09,07,08,26,53.00
2016,09,07,08,27,52.80
2016,09,07,08,28,50.60
2016,09,07,08,29,48.30
2016,09,07,08,30,47.00
2016,09,07,08,31,46.50
2016,09,07,08,32,44.70
2016,09,07,08,33,44.00
2016,09,07,08,34,44.00
2016,09,07,08,35,44.00
2016,09,07,08,36,44.00
2016,09,07,08,37,44.00
2016,09,07,08,38,44.00
2016,09,07,08,39,44.00
2016,09,07,08,40,44.00
2016,09,07,08,41,45.30
2016,09,07,08,42,46.80
2016,09,07,08,43,48.80
2016,09,07,08,44,49.20
2016,09,07,08,45,51.40
2016,09,07,08,46,53.30
2016,09,07,08,47,54.00
2016,09,07,08,48,55.00
2016,09,07,08,49,56.00
2016,09,07,08,50,56.00
2016,09,07,08,51,56.00
2016,09,07,08,52,57.90
2016,09,07,08,53,58.00
2016,09,07,08,54,58.50
2016,09,07,08,55,60.00
2016,09,07,08,56,58.20
2016,09,07,08,57,54.90
2016,09,07,08,58,54.00
2016,09,07,08,59,53.20
2016,09,07,09,00,53.00
2016,09,07,09,01,54.00
2016,09,07,09,02,54.40
2016,09,07,09,03,56.60
2016,09,07,09,04,58.80
2016,09,07,09,05,61.00
2016,09,07,09,06,62.60
2016,09,07,09,07,64.40
2016,09,07,09,08,68.30
2016,09,07,09,09,73.60
2016,09,07,09,10,77.40
2016,09,07,09,11,81.40
2016,09,07,09,12,83.30
2016,09,07,09,13,84.90
2016,09,07,09,14,86.00
2016,09,07,09,15,87.30
2016,09,07,09,16,88.00
2016,09,07,09,17,88.00
2016,09,07,09,18,89.90
2016,09,07,09,19,90.00
2016,09,07,09,20,90.00
2016,09,07,09,21,90.00
2016,09,07,09,22,90.00
2016,09,07,09,23,90.00
2016,09,07,09,24,88.60
2016,09,07,09,25,88.00
2016,09,07,09,26,86.20
2016,09,07,09,27,84.00
2016,09,07,09,28,83.80
2016,09,07,09,29,83.00
2016,09,07,09,30,83.00
2016,09,07,09,31,83.00
2016,09,07,09,32,81.70
2016,09,07,09,33,81.00
2016,09,07,09,34,79.30
2016,09,07,09,35,79.10
2016,09,07,09,36,81.30
2016,09,07,09,37,83.30
2016,09,07,09,38,85.50
2016,09,07,09,39,89.40
2016,09,07,09,40,93.20
2016,09,07,09,41,96.30
2016,09,07,09,42,97.80
2016,09,07,09,43,99.80
2016,09,07,09,44,104.00
2016,09,07,09,45,104.20
2016,09,07,09,46,105.60
2016,09,07,09,47,107.00
2016,09,07,09,48,107.00
2016,09,07,09,49,107.00
2016,09,07,09,50,105.60
2016,09,07,09,51,105.00
2016,09,07,09,52,104.10
2016,09,07,09,53,103.80
2016,09,07,09,54,102.00
2016,09,07,09,55,102.00
2016,09,07,09,56,102.00
2016,09,07,09,57,102.00
2016,09,07,09,58,103.30
2016,09,07,09,59,104.80
2016,09,07,10,00,106.70
2016,09,07,10,01,107.00
2016,09,07,10,02,107.00
2016,09,07,10,03,107.00
2016,09,07,10,04,106.30
2016,09,07,10,05,105.00
2016,09,07,10,06,105.00
2016,09,07,10,07,105.00
2016,09,07,10,08,105.00
2016,09,07,10,09,106.80
2016,09,07,10,10,107.20
2016,09,07,10,11,109.00
2016,09,07,10,12,108.30
2016,09,07,10,13,107.00
2016,09,07,10,14,107.00
2016,09,07,10,15,107.00
2016,09,07,10,16,105.50
2016,09,07,10,17,102.40
2016,09,07,10,18,98.00
2016,09,07,10,19,94.70
2016,09,07,10,20,93.00
2016,09,07,10,21,93.70
2016,09,07,10,22,97.40
2016,09,07,10,23,103.90
2016,09,07,10,24,114.30
2016,09,07,10,25,125.00
2016,09,07,10,26,133.20
2016,09,07,10,27,137.00
2016,09,07,10,28,139.40
2016,09,07,10,29,141.00
2016,09,07,10,30,140.30
2016,09,07,10,31,139.00
2016,09,07,10,32,137.80
2016,09,07,10,33,135.60
2016,09,07,10,34,134.20
2016,09,07,10,35,132.10
2016,09,07,10,36,127.30
2016,09,07,10,37,121.90
2016,09,07,10,38,118.00
2016,09,07,10,39,113.10
2016,09,07,10,40,104.20
2016,09,07,10,41,99.30
2016,09,07,10,42,98.00
2016,09,07,10,43,98.00
2016,09,07,10,44,100.10
2016,09,07,10,45,102.40
2016,09,07,10,46,104.30
2016,09,07,10,47,105.70
2016,09,07,10,48,107.00
2016,09,07,10,49,107.00
2016,09,07,10,50,105.70
2016,09,07,10,51,104.20
2016,09,07,10,52,104.00
2016,09,07,10,53,101.80
2016,09,07,10,54,99.30
2016,09,07,10,55,96.40
2016,09,07,10,56,93.40
2016,09,07,10,57,90.50
2016,09,07,10,58,88.70
2016,09,07,10,59,86.50
2016,09,07,11,00,86.00
2016,09,07,11,01,84.10
2016,09,07,11,02,83.90
2016,09,07,11,03,82.50
2016,09,07,11,04,81.00
2016,09,07,11,05,80.10
2016,09,07,11,06,77.90
2016,09,07,11,07,77.00
2016,09,07,11,08,76.20
2016,09,07,11,09,76.00
2016,09,07,11,10,73.90
2016,09,07,11,11,71.60
2016,09,07,11,12,70.00
2016,09,07,11,13,70.00
2016,09,07,11,14,69.50
2016,09,07,11,15,69.00
2016,09,07,11,16,69.00
2016,09,07,11,17,69.80
2016,09,07,11,18,70.00
2016,09,07,11,19,70.30
2016,09,07,11,20,72.00
2016,09,07,11,21,72.00
2016,09,07,11,22,72.00
2016,09,07,11,23,72.00
2016,09,07,11,24,72.00
2016,09,07,11,25,70.50
2016,09,07,11,26,70.00
2016,09,07,11,27,68.70
2016,09,07,11,28,64.70
2016,09,07,11,29,62.70
2016,09,07,11,30,61.30
2016,09,07,11,31,60.00
2016,09,07,11,32,61.20
2016,09,07,11,33,62.00
2016,09,07,11,34,60.40
2016,09,07,11,35,60.00
2016,09,07,11,36,60.00
2016,09,07,11,37,60.40
2016,09,07,11,38,62.30
2016,09,07,11,39,65.40
2016,09,07,11,40,70.60
2016,09,07,11,41,74.50
2016,09,07,11,42,78.20
2016,09,07,11,43,80.60
2016,09,07,11,44,83.90
2016,09,07,11,45,86.30
2016,09,07,11,46,88.00
2016,09,07,11,47,87.30
2016,09,07,11,48,84.70
2016,09,07,11,49,81.90
2016,09,07,11,50,79.70
2016,09,07,11,51,79.00
2016,09,07,11,52,79.00
2016,09,07,11,53,80.90
2016,09,07,11,54,81.00
2016,09,07,11,55,80.50
2016,09,07,11,56,78.20
2016,09,07,11,57,77.00
2016,09,07,11,58,77.00
2016,09,07,11,59,77.00
2016,09,07,12,00,78.60
2016,09,07,12,01,82.60
2016,09,07,12,02,84.40
2016,09,07,12,03,88.40
2016,09,07,12,04,91.00
2016,09,07,12,05,93.80
2016,09,07,12,06,95.00
2016,09,07,12,07,95.00
2016,09,07,12,08,95.00
2016,09,07,12,09,95.00
2016,09,07,12,10,95.10
2016,09,07,12,11,97.00
2016,09,07,12,12,97.00
2016,09,07,12,13,97.00
2016,09,07,12,14,96.10
2016,09,07,12,15,95.00
2016,09,07,12,16,96.40
2016,09,07,12,17,97.80
2016,09,07,12,18,101.60
2016,09,07,12,19,102.80
2016,09,07,12,20,113.90
2016,09,07,12,21,118.00
2016,09,07,12,22,118.00
2016,09,07,12,23,120.50
2016,09,07,12,24,121.20
2016,09,07,12,25,117.10
2016,09,07,12,26,116.00
2016,09,07,12,27,116.00
2016,09,07,12,28,115.70
2016,09,07,12,29,114.00
2016,09,07,12,30,112.90
2016,09,07,12,31,109.20
2016,09,07,12,32,107.00
2016,09,07,12,33,107.00
2016,09,07,12,34,100.00
2016,09,07,12,35,93.60
2016,09,07,12,36,89.70
2016,09,07,12,37,83.10
2016,09,07,12,38,78.40
2016,09,07,12,39,76.60
2016,09,07,12,40,76.50
2016,09,07,12,41,79.40
2016,09,07,12,42,83.10
2016,09,07,12,43,85.60
2016,09,07,12,44,86.00
2016,09,07,12,45,85.80
2016,09,07,12,46,83.30
2016,09,07,12,47,79.70
2016,09,07,12,48,77.00
2016,09,07,12,49,71.40
2016,09,07,12,50,63.90
2016,09,07,12,51,59.00
2016,09,07,12,52,54.60
2016,09,07,12,53,52.90
2016,09,07,12,54,51.00
2016,09,07,12,55,49.70
2016,09,07,12,56,45.30
2016,09,07,12,57,45.40
2016,09,07,12,58,49.40
2016,09,07,12,59,55.90
2016,09,07,13,00,61.90
2016,09,07,13,01,68.30
2016,09,07,13,02,68.80
2016,09,07,13,03,66.10
2016,09,07,13,04,62.10
2016,09,07,13,05,60.00
2016,09,07,13,06,60.00
2016,09,07,13,07,60.00
2016,09,07,13,08,61.50
2016,09,07,13,09,62.80
2016,09,07,13,10,68.50
2016,09,07,13,11,69.00
2016,09,07,13,12,69.70
2016,09,07,13,13,72.00
2016,09,07,13,14,72.00
2016,09,07,13,15,72.00
2016,09,07,13,16,75.10
2016,09,07,13,17,82.20
2016,09,07,13,18,85.70
2016,09,07,13,19,82.30
2016,09,07,13,20,71.10
2016,09,07,13,21,67.90
2016,09,07,13,22,72.20
2016,09,07,13,23,79.40
2016,09,07,13,24,81.80
2016,09,07,13,25,78.20
2016,09,07,13,26,74.70
2016,09,07,13,27,74.00
2016,09,07,13,28,77.80
2016,09,07,13,29,86.40
2016,09,07,13,30,96.50
2016,09,07,13,31,100.00
2016,09,07,13,32,93.80
2016,09,07,13,33,86.70
2016,09,07,13,34,86.00
2016,09,07,13,35,87.70
2016,09,07,13,36,91.20
2016,09,07,13,37,100.00
2016,09,07,13,38,104.10
2016,09,07,13,39,116.00
2016,09,07,13,40,116.00
2016,09,07,13,41,120.10
2016,09,07,13,42,125.80
2016,09,07,13,43,127.80
2016,09,07,13,44,123.60
2016,09,07,13,45,120.90
2016,09,07,13,46,118.40
2016,09,07,13,47,110.30
2016,09,07,13,48,105.00
2016,09,07,13,49,110.70
2016,09,07,13,50,116.00
2016,09,07,13,51,116.00
2016,09,07,13,52,113.60
2016,09,07,13,53,112.00
2016,09,07,13,54,87.20
2016,09,07,13,55,79.90
2016,09,07,13,56,74.70
2016,09,07,13,57,68.90
2016,09,07,13,58,60.00
2016,09,07,13,59,54.00
2016,09,07,14,00,51.50
2016,09,07,14,01,51.00
2016,09,07,14,02,51.00
2016,09,07,14,03,51.30
2016,09,07,14,04,51.90
2016,09,07,14,05,48.20
2016,09,07,14,06,49.10
2016,09,07,14,07,52.30
2016,09,07,14,08,56.50
2016,09,07,14,09,61.90
2016,09,07,14,10,62.90
2016,09,07,14,11,60.00
2016,09,07,14,12,60.70
2016,09,07,14,13,63.60
2016,09,07,14,14,67.90
2016,09,07,14,15,72.00
2016,09,07,14,16,78.90
2016,09,07,14,17,80.00
2016,09,07,14,18,73.00
2016,09,07,14,19,67.40
2016,09,07,14,20,71.20
2016,09,07,14,21,87.40
2016,09,07,14,22,98.90
2016,09,07,14,23,98.90
2016,09,07,14,24,95.00
2016,09,07,14,25,87.00
2016,09,07,14,26,88.40
2016,09,07,14,27,94.40
2016,09,07,14,28,100.30
2016,09,07,14,29,104.60
2016,09,07,14,30,107.60
2016,09,07,14,31,107.40
2016,09,07,14,32,103.40
2016,09,07,14,33,100.70
2016,09,07,14,34,101.40
2016,09,07,14,35,103.60
2016,09,07,14,36,106.80
2016,09,07,14,37,108.30
2016,09,07,14,38,116.00
2016,09,07,14,39,116.00
2016,09,07,14,40,114.70
2016,09,07,14,41,110.80
2016,09,07,14,42,109.00
2016,09,07,14,43,112.80
2016,09,07,14,44,115.70
2016,09,07,14,45,113.90
2016,09,07,14,46,109.90
2016,09,07,14,47,103.20
2016,09,07,14,48,95.40
2016,09,07,14,49,87.60
2016,09,07,14,50,81.00
2016,09,07,14,51,77.60
2016,09,07,14,52,78.60
2016,09,07,14,53,80.80
2016,09,07,14,54,78.70
2016,09,07,14,55,75.10
2016,09,07,14,56,70.30
2016,09,07,14,57,66.10
2016,09,07,14,58,65.00
2016,09,07,14,59,68.30
2016,09,07,15,00,71.50
2016,09,07,15,01,72.00
2016,09,07,15,02,65.60
2016,09,07,15,03,70.00
2016,09,07,15,04,70.00
2016,09,07,15,05,73.30
2016,09,07,15,06,80.00
2016,09,07,15,07,84.00
2016,09,07,15,08,86.00
2016,09,07,15,09,86.00
2016,09,07,15,10,90.40
2016,09,07,15,11,90.20
2016,09,07,15,12,82.20
2016,09,07,15,13,76.00
2016,09,07,15,14,74.40
2016,09,07,15,15,71.00
2016,09,07,15,16,71.30
2016,09,07,15,17,72.00
2016,09,07,15,18,72.00
2016,09,07,15,19,76.00
2016,09,07,15,20,84.00
2016,09,07,15,21,90.00
2016,09,07,15,22,88.60
2016,09,07,15,23,87.80
2016,09,07,15,24,93.90
2016,09,07,15,25,97.00
2016,09,07,15,26,92.60
2016,09,07,15,27,90.10
2016,09,07,15,28,83.00
2016,09,07,15,29,79.40
2016,09,07,15,30,83.70
2016,09,07,15,31,98.50
2016,09,07,15,32,124.60
2016,09,07,15,33,149.40
2016,09,07,15,34,161.50
2016,09,07,15,35,164.60
2016,09,07,15,36,160.40
2016,09,07,15,37,144.20
2016,09,07,15,38,128.40
2016,09,07,15,39,120.00
2016,09,07,15,40,113.60
2016,09,07,15,41,113.00
2016,09,07,15,42,111.70
2016,09,07,15,43,117.70
2016,09,07,15,44,120.00
2016,09,07,15,45,103.90
2016,09,07,15,46,83.00
2016,09,07,15,47,78.80
2016,09,07,15,48,83.60
2016,09,07,15,49,76.70
2016,09,07,15,50,69.40
2016,09,07,15,51,72.50
2016,09,07,15,52,81.30
2016,09,07,15,53,93.70
2016,09,07,15,54,115.10
2016,09,07,15,55,134.00
2016,09,07,15,56,145.00
2016,09,07,15,57,157.10
2016,09,07,15,58,173.40
2016,09,07,15,59,212.60
2016,09,07,16,00,221.20
2016,09,07,16,01,218.00
2016,09,07,16,02,229.90
2016,09,07,16,03,253.10
2016,09,07,16,04,283.10
2016,09,07,16,05,309.00
2016,09,07,16,06,304.60
2016,09,07,16,07,247.90
2016,09,07,16,08,223.00
2016,09,07,16,09,194.90
2016,09,07,16,10,196.90
2016,09,07,16,11,212.60
2016,09,07,16,12,196.30
2016,09,07,16,13,171.90
2016,09,07,16,14,176.90
2016,09,07,16,15,190.30
2016,09,07,16,16,212.00
2016,09,07,16,17,230.10
2016,09,07,16,18,238.10
2016,09,07,16,19,234.10
2016,09,07,16,20,227.00
2016,09,07,16,21,225.70
2016,09,07,16,22,218.70
2016,09,07,16,23,214.90
2016,09,07,16,24,224.90
2016,09,07,16,25,234.70
2016,09,07,16,26,229.30
2016,09,07,16,27,225.30
2016,09,07,16,28,217.90
2016,09,07,16,29,200.50
2016,09,07,16,30,189.70
2016,09,07,16,31,181.50
2016,09,07,16,32,185.30
2016,09,07,16,33,208.10
2016,09,07,16,34,243.70
2016,09,07,16,35,260.40
2016,09,07,16,36,257.60
2016,09,07,16,37,267.00
2016,09,07,16,38,266.60
2016,09,07,16,39,275.70
2016,09,07,16,40,281.10
2016,09,07,16,41,261.10
2016,09,07,16,42,260.20
2016,09,07,16,43,261.00
2016,09,07,16,44,275.60
2016,09,07,16,45,271.60
2016,09,07,16,46,247.90
2016,09,07,16,47,234.20
2016,09,07,16,48,233.40
2016,09,07,16,49,247.70
2016,09,07,16,50,261.70
2016,09,07,16,51,277.70
2016,09,07,16,52,297.00
2016,09,07,16,53,301.00
2016,09,07,16,54,305.00
2016,09,07,16,55,362.10
2016,09,07,16,56,429.90
2016,09,07,16,57,460.10
2016,09,07,16,58,397.50
2016,09,07,16,59,363.80
2016,09,07,17,00,319.00
2016,09,07,17,01,296.60
2016,09,07,17,02,296.90
2016,09,07,17,03,308.30
2016,09,07,17,04,362.00
2016,09,07,17,05,362.00
2016,09,07,17,06,352.70
2016,09,07,17,07,306.60
2016,09,07,17,08,283.00
2016,09,07,17,09,334.00
2016,09,07,17,10,300.30
2016,09,07,17,11,274.00
2016,09,07,17,12,236.80
2016,09,07,17,13,210.10
2016,09,07,17,14,193.10
2016,09,07,17,15,178.70
2016,09,07,17,16,172.80
2016,09,07,17,17,176.70
2016,09,07,17,18,179.00
2016,09,07,17,19,199.40
2016,09,07,17,20,206.90
2016,09,07,17,21,206.90
2016,09,07,17,22,215.10
2016,09,07,17,23,228.70
2016,09,07,17,24,235.00
2016,09,07,17,25,227.80
2016,09,07,17,26,207.40
2016,09,07,17,27,202.00
2016,09,07,17,28,211.00